Showing default

BOTSAT-1, 63216

Orbit data source: Space-Track

BOTSAT-1, 63216 is a Batswana payload satellite in SSO that was launched on Sat, 15 Mar 2025 UTC via an FALCON 9 launch vehicle from the Air Force Western Test Range (AFWTR). Payload-class satellites include a variety of spacecraft equipped with specific instruments for various scientific and technological missions. These include communications satellites like Starlink; space stations such as the ISS; scientific satellites like the Hubble; Earth observation satellites from companies like Planet Labs, Umbra, and HawkEye 360; GPS; miniature CubeSats for education and research; and military/defense satellites.

Loading next visibility...
Identifier
63216, 2025-052G
Orbit
SSO
Country
Flag of BWBW / BWA
Related business
Manufacturer
Endurosat
Mission
Operational Amateur Technology
Bus & Motor
CUBESAT 3U, Unknown motor
Mass
5 kg wet, 5 kg dry
Launch date (UTC)
2025-03-15 (7 months ago)
Launch vehicle
FALCON 9
Launch site
Air Force Western Test Range (AFWTR)
Object type
Payload
Rocket body
Debris
Shape & HBR
Box + 4 Pan, 14.5 m
Radar Cross Section
0.035 m², Medium (>0.1 m² and < 1m²)

Expand to show TLE details & history
Last TLE update: 10 hours ago

TLE from 10 hours ago
0 BOTSAT-1
1 63216U 25052G   25288.61449749  .00012369  00000-0  55311-3 0  9990
2 63216  97.4105 180.3879 0000419 309.7567  50.3632 15.21450020 32692
Epoch: 2025-10-15T14:44Z
TLE epoch observation values (Epoch: 2025-10-15T14:44:52.583Z)
Latitude
Longitude
-65.21724°
Altitude
504.374 km
Speed
7.612 km/s
True Right ascension
12h 01m 33s
True Declination
0° 00' 00"
Sunlit
Object was in daylight at epoch
Visualization orbit readout
Latitude
Unknown
Longitude
Unknown
Altitude
Unknown
Speed
Unknown
Apparent Right ascension
Unknown
Apparent Declination
Unknown
Sunlit
N/A
Visualization observer readout
Local Sidereal Time
19:30:16
Azimuth
Unknown
Elevation
Unknown
Doppler factor
Unknown
Orbital elements
Apogee altitude
498.718 km
Perigee altitude
498.142 km
Semi-major axis
6,876.567 km
Eccentricity
0.00004
Inclination
97.4105°
RAAN
180.3879°
Arg. of periapsis
309.7567°
True anomaly
50.3669°
Mean anomaly
50.3632°
Eccentric anomaly
50.36505°
Mean motion
3.80615 °/min
Orbital period
94.58 mins
BSTAR
0.00055311
Loading maneuver chart data...
Computing Atmospheric mass density...
Loading historical data...
Loading historical data...
Loading historical data...
Loading historical data...
Loading historical data...
Loading historical data...
Loading historical data...

Documentation

Showing up to 5 results
|